Weather History for Sexton Summit, OR

Change the Weather History Date:

Sunday, February 2, 2014

  Actual Average Record
Temperature  
Mean Temperature 36 °F -  
Max Temperature 43 °F 39 °F 43 °F (2014)
Min Temperature 30 °F 30 °F 30 °F (2014)
Degree Days  
Heating Degree Days 28    
Moisture  
Dew Point 26 °F    
Average Humidity 73    
Maximum Humidity 100    
Minimum Humidity 47    
Precipitation  
Precipitation 0.00 in - - ()
Sea Level Pressure  
Sea Level Pressure 29.91 in    
Wind  
Wind Speed 9 mph (ENE)    
Max Wind Speed 15 mph    
Max Gust Speed 25 mph    
Visibility 8 miles    
Events      
Averages and records for this station are not official NWS values.
T = Trace of Precipitation, MM = Missing Value Source: NWS Daily Summary

Daily Weather History Graph

Daily Weather History Graph

Search for Another Location

Airport:

Trip Planner

Search our weather history database for the weather conditions in past years. The results will help you decide how hot, cold, wet, or windy it might be!

Date:

Astronomy

Feb. 02, 2014 Rise Set
Actual Time 7:26 AM PST 5:28 PM PST
Civil Twilight 6:56 AM PST 5:58 PM PST
Nautical Twilight 6:22 AM PST 6:32 PM PST
Astronomical Twilight 5:49 AM PST 7:05 PM PST
Moon 8:50 AM PST (2/2) 9:25 PM PST (2/2)
Length of Visible Light 11h 01m
Length of Day
10h 02m
Waxing Crescent, 12% of the Moon is Illuminated
Feb 2
Waxing Crescent
Feb 6
First Quarter
Feb 14
Full
Feb 22
Last Quarter
Mar 1
New

Hourly Weather History & Observations

Time (PST) Temp. Windchill Dew Point Humidity Pressure Visibility Wind Dir Wind Speed Gust Speed Precip Events Conditions
12:56 AM 33.1 °F 23.4 °F 25.0 °F 72% 29.92 in 10.0 mi SE 13.8 mph - N/A   Clear
1:56 AM 33.1 °F 24.4 °F 23.0 °F 66% 29.91 in 10.0 mi ESE 11.5 mph - N/A   Partly Cloudy
2:56 AM 33.1 °F 24.4 °F 21.0 °F 61% 29.90 in 10.0 mi ESE 11.5 mph - N/A   Partly Cloudy
3:56 AM 32.0 °F 22.1 °F 21.0 °F 64% 29.90 in 10.0 mi ESE 13.8 mph 21.9 mph N/A   Scattered Clouds
4:56 AM 32.0 °F 22.5 °F 19.9 °F 61% 29.91 in 10.0 mi ESE 12.7 mph 19.6 mph N/A   Partly Cloudy
5:56 AM 32.0 °F 22.5 °F 19.9 °F 61% 29.91 in 10.0 mi ESE 12.7 mph 25.3 mph N/A   Clear
6:56 AM 32.0 °F 21.6 °F 19.9 °F 61% 29.91 in 10.0 mi ESE 15.0 mph - N/A   Partly Cloudy
7:56 AM 33.1 °F 23.9 °F 19.9 °F 59% 29.91 in 10.0 mi ESE 12.7 mph - N/A   Clear
8:56 AM 37.0 °F 28.9 °F 21.0 °F 52% 29.91 in 10.0 mi ESE 12.7 mph - N/A   Clear
9:56 AM 35.1 °F 27.4 °F 21.9 °F 59% 29.92 in 10.0 mi ESE 10.4 mph - N/A   Clear
10:56 AM 39.9 °F 34.5 °F 21.9 °F 49% 29.92 in 10.0 mi ESE 8.1 mph - N/A   Clear
11:56 AM 43.0 °F 39.5 °F 24.1 °F 47% 29.89 in 10.0 mi Variable 5.8 mph - N/A   Clear
12:56 PM 42.1 °F 40.2 °F 24.1 °F 49% 29.88 in 10.0 mi Variable 3.5 mph - N/A   Clear
1:56 PM 39.9 °F - 25.0 °F 55% 29.88 in 10.0 mi Calm Calm - N/A   Clear
2:56 PM 39.0 °F 36.8 °F 25.0 °F 57% 29.90 in 10.0 mi NNW 3.5 mph - N/A   Clear
3:56 PM 37.9 °F 35.5 °F 21.9 °F 53% 29.92 in 10.0 mi Variable 3.5 mph - N/A   Clear
4:56 PM 37.9 °F 35.5 °F 24.1 °F 57% 29.93 in 10.0 mi Variable 3.5 mph - N/A   Overcast
5:56 PM 36.0 °F 33.3 °F 25.0 °F 64% 29.94 in 10.0 mi Variable 3.5 mph - N/A   Overcast
6:56 PM 33.1 °F 27.7 °F 28.9 °F 85% 29.95 in 10.0 mi NNW 5.8 mph - N/A   Overcast
7:56 PM 32.0 °F 26.4 °F 28.9 °F 88% 29.94 in 10.0 mi NNW 5.8 mph - N/A   Mostly Cloudy
8:56 PM 32.0 °F 26.4 °F 30.0 °F 92% 29.93 in 10.0 mi NNW 5.8 mph - N/A   Mostly Cloudy
9:56 PM 32.0 °F 25.6 °F 30.0 °F 92% 29.94 in 10.0 mi NNW 6.9 mph - N/A   Overcast
10:35 PM 32.0 °F 24.8 °F 30.9 °F 96% 29.89 in 10.0 mi NNW 8.1 mph - N/A   Overcast
10:44 PM 32.0 °F 26.4 °F 30.9 °F 96% 29.89 in 5.0 mi NNW 5.8 mph - N/A   Overcast
10:56 PM 30.9 °F 25.2 °F 30.9 °F 100% 29.94 in 2.0 mi NNW 5.8 mph - N/A   Overcast
11:11 PM 32.0 °F - 30.9 °F 96% 29.90 in 5.0 mi Calm Calm - N/A   Overcast
11:19 PM 30.9 °F 26.2 °F 30.9 °F 100% 29.90 in 1.8 mi Variable 4.6 mph - N/A   Overcast
11:24 PM 30.9 °F 24.3 °F 30.9 °F 100% 29.91 in 0.8 mi NNW 6.9 mph - N/A   Mist
11:43 PM 30.9 °F 25.2 °F 30.0 °F 96% 29.91 in 1.5 mi Variable 5.8 mph - N/A   Overcast
11:56 PM 30.9 °F 26.2 °F 30.0 °F 96% 29.95 in 2.5 mi Variable 4.6 mph - N/A   Overcast